"Pseudo-MPEC" for P22oVNM

Created 2026 Aug 10 21:35:13 UT using Find_Orb

Click here for an explanation of pseudo-MPECs

 
 Astrometry: 
     P22oVNM*0C2026 08 07.32697221 17 34.764+19 37 37.52   ~87A5 21.06wXNEOCPF52
     P22oVNM 0C2026 08 07.33912321 17 34.948+19 37 59.07   ~87A5 21.46wXNEOCPF52
     P22oVNM 0C2026 08 07.35126521 17 35.112+19 38 20.43   ~87A5 20.87wXNEOCPF52
     P22oVNM 0C2026 08 07.45932021 17 36.451+19 41 28.90   ~87Go 21.29GVNEOCPF52
     P22oVNM 0C2026 08 07.46012721 17 36.464+19 41 30.12   ~87Go 21.07GVNEOCPF52
     P22oVNM 1C2026 08 07.95015021 17 48.206+19 55 24.90   ~87NK 20.8 GXNEOCP033
     P22oVNM 1C2026 08 07.95446021 17 48.268+19 55 32.60   ~87NK 20.7 GXNEOCP033
     P22oVNM 1C2026 08 07.95663021 17 48.307+19 55 36.00   ~87NK 20.5 GXNEOCP033
     P22oVNM 0B2026 08 08.00757521 17 48.899+19 57 35.72   ~8825 21.5 GWNEOCPM21
     P22oVNM 1C2026 08 08.84002021 18 09.968+20 21 05.50   ~88KZ 20.5 GXNEOCP033
     P22oVNM 1C2026 08 08.84166021 18 09.997+20 21 09.00   ~88KZ 20.4 GXNEOCP033
     P22oVNM 1C2026 08 08.84330021 18 10.069+20 21 10.90   ~88KZ 20.5 GXNEOCP033
     P22oVNM 1C2026 08 08.84494021 18 10.120+20 21 13.50   ~88KZ 21.2 GXNEOCP033
     P22oVNM  C2026 08 09.24644421 18 19.487+20 32 59.18   ~896o 20.8 GWNEOCPH01
     P22oVNM  C2026 08 09.24994121 18 19.542+20 33 05.33   ~896o 20.9 GWNEOCPH01
     P22oVNM  C2026 08 09.26478621 18 19.758+20 33 31.35   ~896o 20.7 GWNEOCPH01
     P22oVNM  C2026 08 09.27642121 18 19.929+20 33 51.61   ~896o 20.8 GWNEOCPH01
     P22oVNM KB2026 08 10.86371 21 19 00.26 +21 19 43.8    ~8ALK 17.9 RXNEOCP106
     P22oVNM KB2026 08 10.86791 21 19 00.36 +21 19 50.4    ~8ALK 19.8 RXNEOCP106
     P22oVNM KB2026 08 10.87211 21 19 00.50 +21 19 57.5    ~8ALK 18.5 RXNEOCP106
     P22oVNM KB2026 08 10.87632 21 19 00.52 +21 20 04.7    ~8ALK 17.6 RXNEOCP106

Station data:
(033) Karl Schwarzschild Observatory, Tautenburg  (N50.980139 E11.711240)
   Germany.  Observer B. Stecklum. 1.34-m f/3 Schmidt + CCD.
(106) Črni Vrh  (N45.945905 E14.071100)  Slovenia.  Observer J. Skvarč. 0.6-m
   f/3.3 Deltagraph + CCD.
(F52) Pan-STARRS 2, Haleakala  (N20.707382 W156.255910)  US/Hawaii.
   Observers J. Herman, T. Lowe, P. Minguez, A. Schultz, I. Smith. Measurers
   K. Chambers, T. de Boer, J. Fairlamb, H. Gao, M. Huber, C.-C. Lin, E.
   Magnier, Y. Ramanjooloo, R. Wainscoat, R. Weryk. 1.8-m Ritchey-Chrétien +
   CCD.
(H01) Magdalena Ridge Observatory, Socorro  (N33.984833 W107.189333)  US/New
   Mexico.  Observers W. H. Ryan, E. V. Ryan. Measurer W. H. Ryan. 2.4-m
   f/8.9 reflector + CCD.
(M21) Schiaparelli Southern Observatory, Hakos  (S23.236549 E16.361440)
   Namibia.  Observers A. Aletti, F. Bellini, L. Buzzi, G. Galli. Measurer L.
   Buzzi. 0.36-m f/8.4 reflector + CCD.

Orbital elements:  P22oVNM
   Perihelion 2026 Oct 5.184426 +/- 0.0651 TT =  4:25:34.4 (JD 2461318.684426)
Epoch 2026 Aug 10.0 TT = JDT 2461262.5   Earth MOID: 0.1260      AutoNEOCP
M 344.120955983 +/- 0.26            (J2000 ecliptic)
n   0.282623587 +/- 0.0045          Peri.  153.116755 +/- 0.37
a   2.299660784 +/- 0.0244          Node   219.205123 +/- 0.28
e   0.51728709 +/- 0.00456          Incl.    8.224966 +/- 0.044
P   3.48735                H 21.32  G  0.15   U  9.1
q 1.110075930 +/- 0.00148    Q 3.489245638 +/- 0.0475
From 21 observations 2026 Aug. 7-10; mean residual 0".31
Residuals in arcseconds: 
260807 F52  .04+  .10-    260807 033  .13-  .19-    260809 H01  .14+  .11-    
260807 F52  .14+  .02+    260808 M21  .18+  .37-    260809 H01  .13+  .07-    
260807 F52  .05+  .00     260808 033  .40-  .32+    260809 H01  .18+  .13-    
260807 F52  .15-  .16+    260808 033  .43-  .93+    260810 106  .50-  .83+    
260807 F52  .10-  .02-    260808 033  .15+  .06-    260810 106  .20-  .02+    
260807 033  .10-  .03-    260808 033  .44+  .35-    260810 106  .67+  .29-    
260807 033  .20-  .18+    260809 H01  .09+  .13-    260810 106  .13-  .51-    

Ephemerides (geocentric):
Date (UTC) HH   RA             Dec           delta  r     elong  mag " sig PA
---- --------  ------------   ------------  ------ ------ -----  --- --------
2026 08 10 22  21 19 00.853   +21 21 27.97  .31276 1.2778 143.2 20.6 .100 149
2026 08 10 23  21 19 01.935   +21 22 40.44  .31254 1.2776 143.2 20.6 .098 150
2026 08 11 00  21 19 03.019   +21 23 52.90  .31232 1.2773 143.2 20.6 .097 151
2026 08 11 01  21 19 04.105   +21 25 05.37  .31209 1.2771 143.2 20.6 .096 151
2026 08 11 02  21 19 05.194   +21 26 17.84  .31187 1.2769 143.1 20.6 .094 152
2026 08 11 03  21 19 06.284   +21 27 30.31  .31165 1.2767 143.1 20.6 .093 153
2026 08 11 04  21 19 07.376   +21 28 42.79  .31142 1.2764 143.1 20.6 .091 154
2026 08 11 05  21 19 08.470   +21 29 55.26  .31120 1.2762 143.1 20.6 .090 155
2026 08 11 06  21 19 09.566   +21 31 07.74  .31098 1.2760 143.1 20.6 .088 156
2026 08 11 07  21 19 10.664   +21 32 20.23  .31076 1.2758 143.1 20.6 .087 157
2026 08 11 08  21 19 11.764   +21 33 32.71  .31053 1.2755 143.1 20.6 .085 158
2026 08 11 09  21 19 12.866   +21 34 45.20  .31031 1.2753 143.1 20.6 .084 160
2026 08 11 10  21 19 13.970   +21 35 57.69  .31009 1.2751 143.1 20.6 .082 161
2026 08 11 11  21 19 15.076   +21 37 10.18  .30987 1.2749 143.1 20.6 .081 163
2026 08 11 12  21 19 16.185   +21 38 22.67  .30965 1.2746 143.1 20.6 .079 164
2026 08 11 13  21 19 17.295   +21 39 35.17  .30943 1.2744 143.0 20.6 .078 166
2026 08 11 14  21 19 18.407   +21 40 47.67  .30921 1.2742 143.0 20.6 .076 168
2026 08 11 15  21 19 19.522   +21 42 00.17  .30898 1.2740 143.0 20.6 .075 169
2026 08 11 16  21 19 20.639   +21 43 12.67  .30876 1.2737 143.0 20.6 .074 171
2026 08 11 17  21 19 21.757   +21 44 25.18  .30854 1.2735 143.0 20.6 .072 174
2026 08 11 18  21 19 22.878   +21 45 37.68  .30832 1.2733 143.0 20.6 .071 176
2026 08 11 19  21 19 24.001   +21 46 50.19  .30810 1.2731 143.0 20.5 .070 178
2026 08 11 20  21 19 25.126   +21 48 02.70  .30788 1.2729 143.0 20.5 .069   1
2026 08 11 21  21 19 26.254   +21 49 15.22  .30766 1.2726 143.0 20.5 .068   3
2026 08 11 22  21 19 27.383   +21 50 27.73  .30744 1.2724 143.0 20.5 .067   6
2026 08 11 23  21 19 28.515   +21 51 40.25  .30722 1.2722 143.0 20.5 .067   9
2026 08 12 00  21 19 29.649   +21 52 52.76  .30700 1.2720 143.0 20.5 .066  12
2026 08 12 01  21 19 30.785   +21 54 05.28  .30678 1.2717 142.9 20.5 .066  15
2026 08 12 02  21 19 31.924   +21 55 17.81  .30656 1.2715 142.9 20.5 .066  18
2026 08 12 03  21 19 33.064   +21 56 30.33  .30635 1.2713 142.9 20.5 .066  21
2026 08 12 04  21 19 34.207   +21 57 42.85  .30613 1.2711 142.9 20.5 .066  25
2026 08 12 05  21 19 35.353   +21 58 55.38  .30591 1.2709 142.9 20.5 .067  28
2026 08 12 06  21 19 36.500   +22 00 07.91  .30569 1.2706 142.9 20.5 .068  31
2026 08 12 07  21 19 37.650   +22 01 20.44  .30547 1.2704 142.9 20.5 .069  35
2026 08 12 08  21 19 38.802   +22 02 32.97  .30525 1.2702 142.9 20.5 .070  38
2026 08 12 09  21 19 39.957   +22 03 45.50  .30504 1.2700 142.9 20.5 .072  41
2026 08 12 10  21 19 41.113   +22 04 58.03  .30482 1.2697 142.9 20.5 .074  44
2026 08 12 11  21 19 42.273   +22 06 10.57  .30460 1.2695 142.8 20.5 .076  47
2026 08 12 12  21 19 43.434   +22 07 23.11  .30438 1.2693 142.8 20.5 .078  50
2026 08 12 13  21 19 44.598   +22 08 35.65  .30417 1.2691 142.8 20.5 .081  52
2026 08 12 14  21 19 45.764   +22 09 48.18  .30395 1.2689 142.8 20.5 .084  55
2026 08 12 15  21 19 46.933   +22 11 00.72  .30373 1.2686 142.8 20.5 .087  57
2026 08 12 16  21 19 48.104   +22 12 13.27  .30351 1.2684 142.8 20.5 .090  60
2026 08 12 17  21 19 49.278   +22 13 25.81  .30330 1.2682 142.8 20.5 .093  62
2026 08 12 18  21 19 50.454   +22 14 38.35  .30308 1.2680 142.8 20.5 .097  64
2026 08 12 19  21 19 51.632   +22 15 50.90  .30286 1.2678 142.8 20.5 .101  66
2026 08 12 20  21 19 52.813   +22 17 03.45  .30265 1.2675 142.8 20.5 .105  68
2026 08 12 21  21 19 53.997   +22 18 15.99  .30243 1.2673 142.8 20.5 .109  69